Location: Gwatt
(46.7204°N, 7.6223°E)
Time: 21:17:19
(UTC+00:00)

Courier 1B Rocket - Visible Passes

Search period start: 21 January 2021 00:00
Search period end: 31 January 2021 00:00
Orbit: 920 x 1202 km, 28.2° (Epoch: 20 January)

Date Brightness Start Highest point End Pass type
(mag) Time Alt. Az. Time Alt. Az. Time Alt. Az.
24 Jan 7.7 05:50:05 10° S 05:51:21 11° SSE 05:52:39 10° SSE visible
26 Jan 7.4 05:39:23 10° S 05:42:06 13° SSE 05:44:52 10° SE visible
28 Jan 7.2 05:29:39 10° SSW 05:32:53 14° S 05:36:12 10° SE visible
29 Jan 7.2 04:30:03 10° S 04:32:15 12° SSE 04:34:28 10° SE visible
29 Jan 7.2 06:20:45 10° SW 06:24:23 15° S 06:28:08 10° SSE visible
30 Jan 7.1 05:20:20 10° SSW 05:23:42 15° S 05:27:10 10° SE visible
